W2LTF Weather Reports


time (UTC)temp
C
wind
direction
speed
KPH
gust
KPH
rain 1hr
cm
rain 24hr
cm
rain mn
cm
humidity
%
barometer
mb
20260506002504 22 0 0.0 0.0 0.00 0.00 0.00 42 1003.7
20260506002003 22 0 0.0 0.0 0.00 0.00 0.00 42 1003.7
20260506001504 22 0 0.0 0.0 0.00 0.00 0.00 42 1003.7
20260506001003 22 0 0.0 0.0 0.00 0.00 0.00 42 1003.3
20260506000504 22 0 0.0 0.0 0.00 0.00 0.00 42 1003.3
20260506000003 22 0 0.0 0.0 0.00 0.00 0.00 41 1003.3
20260505235504 23 0 0.0 0.0 0.00 0.00 0.00 41 1003.3
20260505234504 23 0 0.0 0.0 0.00 0.00 0.00 40 1003.3
20260505234003 23 0 0.0 0.0 0.00 0.00 0.00 40 1003.3
20260505232504 23 0 0.0 0.0 0.00 0.00 0.00 40 1003.3
20260505231504 23 0 0.0 0.0 0.00 0.00 0.00 40 1003.3
20260505231004 23 0 0.0 0.0 0.00 0.00 0.00 40 1003.3
20260505230504 23 0 0.0 0.0 0.00 0.00 0.00 39 1003.3
20260505225504 24 0 0.0 0.0 0.00 0.00 0.00 39 1003.3
20260505225003 24 0 0.0 0.0 0.00 0.00 0.00 39 1003.3
20260505224504 24 0 0.0 0.0 0.00 0.00 0.00 39 1003.3
20260505224004 24 0 0.0 0.0 0.00 0.00 0.00 39 1003.3
20260505223506 24 0 0.0 0.0 0.00 0.00 0.00 39 1003.0
20260505222503 25 0 0.0 0.0 0.00 0.00 0.00 39 1002.7
20260505221503 25 0 0.0 0.0 0.00 0.00 0.00 39 1003.0
20260505221004 25 0 0.0 0.0 0.00 0.00 0.00 38 1002.7
20260505220503 25 0 0.0 0.0 0.00 0.00 0.00 38 1003.0
20260505220004 25 0 0.0 0.0 0.00 0.00 0.00 38 1003.0
20260505215503 25 0 0.0 0.0 0.00 0.00 0.00 37 1002.7
20260505215004 25 0 0.0 0.0 0.00 0.00 0.00 37 1002.7
20260505214503 26 0 0.0 0.0 0.00 0.00 0.00 37 1002.7
20260505214004 26 0 0.0 0.0 0.00 0.00 0.00 37 1002.7
20260505213504 26 0 0.0 0.0 0.00 0.00 0.00 37 1002.7
20260505213004 26 0 0.0 0.0 0.00 0.00 0.00 35 1002.7
20260505212004 27 0 0.0 0.0 0.00 0.00 0.00 35 1002.7
20260505211004 27 0 0.0 0.0 0.00 0.00 0.00 35 1002.7
20260505210004 27 0 0.0 0.0 0.00 0.00 0.00 35 1002.3
20260505205505 27 0 0.0 0.0 0.00 0.00 0.00 35 1002.3
20260505205003 27 0 0.0 0.0 0.00 0.00 0.00 35 1002.3
20260505204003 28 0 0.0 0.0 0.00 0.00 0.00 35 1002.7
20260505203504 28 0 0.0 0.0 0.00 0.00 0.00 35 1002.3
20260505203004 28 0 0.0 0.0 0.00 0.00 0.00 35 1002.3
20260505201504 28 0 0.0 0.0 0.00 0.00 0.00 35 1002.7
20260505200504 28 0 0.0 0.0 0.00 0.00 0.00 35 1002.7
20260505200004 28 0 0.0 0.0 0.00 0.00 0.00 35 1002.7
20260505195004 28 0 0.0 0.0 0.00 0.00 0.00 37 1002.7
20260505194503 27 0 0.0 0.0 0.00 0.00 0.00 37 1002.7
20260505193004 28 0 0.0 0.0 0.00 0.00 0.00 37 1002.7
20260505192004 28 0 0.0 0.0 0.00 0.00 0.00 38 1002.7
20260505191504 28 0 0.0 0.0 0.00 0.00 0.00 38 1003.0
20260505191003 28 0 0.0 0.0 0.00 0.00 0.00 39 1002.7
20260505190503 28 0 0.0 0.0 0.00 0.00 0.00 40 1003.0
20260505190004 27 0 0.0 0.0 0.00 0.00 0.00 39 1003.0
20260505185504 27 0 0.0 0.0 0.00 0.00 0.00 39 1003.0
20260505184004 28 0 0.0 0.0 0.00 0.00 0.00 40 1003.3
20260505183504 28 0 0.0 0.0 0.00 0.00 0.00 40 1003.3
20260505183004 28 0 0.0 0.0 0.00 0.00 0.00 40 1003.3
20260505182504 28 0 0.0 0.0 0.00 0.00 0.00 40 1003.3
20260505182004 28 0 0.0 0.0 0.00 0.00 0.00 40 1003.7
20260505181504 27 0 0.0 0.0 0.00 0.00 0.00 40 1003.7
20260505181003 27 0 0.0 0.0 0.00 0.00 0.00 40 1003.7
20260505180503 27 0 0.0 0.0 0.00 0.00 0.00 40 1003.7
20260505180004 27 0 0.0 0.0 0.00 0.00 0.00 40 1004.0
20260505175504 27 0 0.0 0.0 0.00 0.00 0.00 42 1003.7
20260505174504 27 0 0.0 0.0 0.00 0.00 0.00 42 1003.7
20260505174003 27 0 0.0 0.0 0.00 0.00 0.00 44 1003.7
20260505173504 27 0 0.0 0.0 0.00 0.00 0.00 44 1003.7
20260505173003 27 0 0.0 0.0 0.00 0.00 0.00 44 1004.0
20260505172004 26 0 0.0 0.0 0.00 0.00 0.00 45 1004.0
20260505171503 26 0 0.0 0.0 0.00 0.00 0.00 45 1004.0
20260505171004 26 0 0.0 0.0 0.00 0.00 0.00 45 1004.0
20260505170504 26 0 0.0 0.0 0.00 0.00 0.00 45 1004.4
20260505165504 26 0 0.0 0.0 0.00 0.00 0.00 45 1004.4
20260505165004 25 0 0.0 0.0 0.00 0.00 0.00 45 1004.4
20260505164504 25 0 0.0 0.0 0.00 0.00 0.00 46 1004.4
20260505164004 25 0 0.0 0.0 0.00 0.00 0.00 47 1004.7
20260505163504 25 0 0.0 0.0 0.00 0.00 0.00 47 1004.7
20260505163003 25 0 0.0 0.0 0.00 0.00 0.00 47 1004.7
20260505162504 25 0 0.0 0.0 0.00 0.00 0.00 48 1004.7
20260505162003 25 0 0.0 0.0 0.00 0.00 0.00 48 1004.7
20260505161504 25 0 0.0 0.0 0.00 0.00 0.00 49 1004.7
20260505161004 24 0 0.0 0.0 0.00 0.00 0.00 49 1004.7
20260505160503 24 0 0.0 0.0 0.00 0.00 0.00 49 1005.0
20260505152004 23 0 0.0 0.0 0.00 0.00 0.00 52 1005.4
20260505151503 22 0 0.0 0.0 0.00 0.00 0.00 52 1005.4
20260505151004 22 0 0.0 0.0 0.00 0.00 0.00 52 1005.4
20260505150504 22 0 0.0 0.0 0.00 0.00 0.00 52 1005.4
20260505140504 21 0 0.0 0.0 0.00 0.00 0.00 55 1006.0
20260505125003 20 0 0.0 0.0 0.00 0.00 0.00 60 1006.0
20260505124504 20 0 0.0 0.0 0.00 0.00 0.00 61 1006.0
20260505124004 19 0 0.0 0.0 0.00 0.00 0.00 63 1005.7
20260505123504 18 0 0.0 0.0 0.00 0.00 0.00 65 1005.4
20260505123004 18 0 0.0 0.0 0.00 0.00 0.00 65 1005.4
20260505122504 17 0 0.0 0.0 0.00 0.00 0.00 66 1005.4
20260505122004 17 0 0.0 0.0 0.00 0.00 0.00 67 1005.4
20260505121503 16 0 0.0 0.0 0.00 0.00 0.00 67 1005.4
20260505121004 16 0 0.0 0.0 0.00 0.00 0.00 68 1005.4
20260505120504 16 0 0.0 0.0 0.00 0.00 0.00 69 1005.4
20260505120004 16 0 0.0 0.0 0.00 0.00 0.00 69 1005.4
20260505115505 16 0 0.0 0.0 0.00 0.00 0.00 69 1005.4
20260505114504 15 0 0.0 0.0 0.00 0.00 0.00 70 1005.7
20260505114004 15 0 0.0 0.0 0.00 0.00 0.00 70 1005.7
20260505113504 15 0 0.0 0.0 0.00 0.00 0.00 71 1005.7
20260505113004 14 0 0.0 0.0 0.00 0.00 0.00 72 1005.7
20260505112503 14 0 0.0 0.0 0.00 0.00 0.00 73 1005.4
20260505111504 13 0 0.0 0.0 0.00 0.00 0.00 72 1005.4
20260505111004 12 0 0.0 0.0 0.00 0.00 0.00 71 1005.4
20260505110504 13 0 0.0 0.0 0.00 0.00 0.00 71 1005.0
20260505102004 13 0 0.0 0.0 0.00 0.00 0.00 64 1005.4
20260505101004 13 0 0.0 0.0 0.00 0.00 0.00 64 1005.7
20260505100003 12 0 0.0 0.0 0.00 0.00 0.00 64 1005.4
20260505094504 12 0 0.0 0.0 0.00 0.00 0.00 63 1005.4
20260505094004 12 0 0.0 0.0 0.00 0.00 0.00 63 1005.4
20260505093004 12 0 0.0 0.0 0.00 0.00 0.00 63 1005.0
20260505092003 12 0 0.0 0.0 0.00 0.00 0.00 62 1005.0
20260505091504 12 0 0.0 0.0 0.00 0.00 0.00 62 1005.0
20260505091003 12 0 0.0 0.0 0.00 0.00 0.00 62 1005.0
20260505090504 12 0 0.0 0.0 0.00 0.00 0.00 62 1005.0
20260505090004 12 0 0.0 0.0 0.00 0.00 0.00 61 1004.7
20260505085504 12 0 0.0 0.0 0.00 0.00 0.00 61 1004.7
20260505085004 13 0 0.0 0.0 0.00 0.00 0.00 61 1004.7
20260505084503 13 0 0.0 0.0 0.00 0.00 0.00 60 1004.7
20260505084004 13 0 0.0 0.0 0.00 0.00 0.00 60 1004.7
20260505083504 13 0 0.0 0.0 0.00 0.00 0.00 60 1004.7
20260505082503 13 0 0.0 0.0 0.00 0.00 0.00 59 1004.7
20260505082004 13 0 0.0 0.0 0.00 0.00 0.00 59 1004.7
20260505081504 13 0 0.0 0.0 0.00 0.00 0.00 58 1004.7
20260505081004 13 0 0.0 0.0 0.00 0.00 0.00 58 1004.7
20260505080004 13 0 0.0 0.0 0.00 0.00 0.00 58 1004.7
20260505075504 13 0 0.0 0.0 0.00 0.00 0.00 58 1004.7
20260505075003 13 0 0.0 0.0 0.00 0.00 0.00 57 1004.7
20260505074504 13 0 0.0 0.0 0.00 0.00 0.00 57 1004.7
20260505074004 13 0 0.0 0.0 0.00 0.00 0.00 57 1004.7
20260505073504 13 0 0.0 0.0 0.00 0.00 0.00 57 1004.7
20260505073004 13 0 0.0 0.0 0.00 0.00 0.00 57 1004.7
20260505072503 13 0 0.0 0.0 0.00 0.00 0.00 57 1004.7
20260505072004 13 0 0.0 0.0 0.00 0.00 0.00 56 1004.7
20260505071503 13 0 0.0 0.0 0.00 0.00 0.00 56 1004.7
20260505071004 13 0 0.0 0.0 0.00 0.00 0.00 56 1004.7
20260505070504 13 0 0.0 0.0 0.00 0.00 0.00 56 1004.7
20260505064504 14 0 0.0 0.0 0.00 0.00 0.00 56 1004.7
20260505064004 14 0 0.0 0.0 0.00 0.00 0.00 56 1004.7
20260505063004 14 0 0.0 0.0 0.00 0.00 0.00 55 1004.7
20260505062503 14 0 0.0 0.0 0.00 0.00 0.00 55 1004.7
20260505062004 14 0 0.0 0.0 0.00 0.00 0.00 55 1004.7
20260505061004 14 0 0.0 0.0 0.00 0.00 0.00 55 1004.7
20260505060503 14 0 0.0 0.0 0.00 0.00 0.00 55 1004.7
20260505060004 14 0 0.0 0.0 0.00 0.00 0.00 55 1004.7
20260505055504 14 0 0.0 0.0 0.00 0.00 0.00 54 1004.7
20260505055004 14 0 0.0 0.0 0.00 0.00 0.00 54 1004.7
20260505054504 14 0 0.0 0.0 0.00 0.00 0.00 54 1004.7
20260505054004 14 0 0.0 0.0 0.00 0.00 0.00 54 1004.7
20260505053504 14 0 0.0 0.0 0.00 0.00 0.00 53 1005.0
20260505053004 14 0 0.0 0.0 0.00 0.00 0.00 53 1005.0
20260505052504 14 0 0.0 0.0 0.00 0.00 0.00 53 1005.0
20260505052003 14 0 0.0 0.0 0.00 0.00 0.00 53 1005.0
20260505051504 14 0 0.0 0.0 0.00 0.00 0.00 53 1005.0
20260505050504 15 0 0.0 0.0 0.00 0.00 0.00 52 1005.0
20260505041504 15 0 0.0 0.0 0.00 0.00 0.00 51 1005.0
20260505041004 15 0 0.0 0.0 0.00 0.00 0.00 51 1005.0
20260505040504 15 0 0.0 0.0 0.00 0.00 0.00 50 1004.7
20260505040004 15 0 0.0 0.0 0.00 0.00 0.00 50 1004.7
20260505035504 15 0 0.0 0.0 0.00 0.00 0.00 50 1004.7
20260505035004 15 0 0.0 0.0 0.00 0.00 0.00 50 1005.0
20260505034504 15 0 0.0 0.0 0.00 0.00 0.00 50 1005.0
20260505033504 15 0 0.0 0.0 0.00 0.00 0.00 50 1005.0
20260505033003 15 0 0.0 0.0 0.00 0.00 0.00 50 1005.0
20260505032504 16 0 0.0 0.0 0.00 0.00 0.00 49 1005.0
20260505032004 16 0 0.0 0.0 0.00 0.00 0.00 49 1005.0
20260505031504 16 0 0.0 0.0 0.00 0.00 0.00 49 1005.0
20260505031004 16 0 0.0 0.0 0.00 0.00 0.00 49 1005.0
20260505030504 16 0 0.0 0.0 0.00 0.00 0.00 49 1005.0
20260505030003 16 0 0.0 0.0 0.00 0.00 0.00 49 1005.4
20260505025004 16 0 0.0 0.0 0.00 0.00 0.00 49 1005.0
20260505024504 16 0 0.0 0.0 0.00 0.00 0.00 49 1005.0
20260505024003 16 0 0.0 0.0 0.00 0.00 0.00 49 1005.0
20260505023504 16 0 0.0 0.0 0.00 0.00 0.00 49 1005.0
20260505023004 16 0 0.0 0.0 0.00 0.00 0.00 48 1005.0
20260505022504 16 0 0.0 0.0 0.00 0.00 0.00 48 1005.4
20260505022003 16 0 0.0 0.0 0.00 0.00 0.00 48 1005.4
20260505021504 16 0 0.0 0.0 0.00 0.00 0.00 48 1005.4
20260505020504 16 0 0.0 0.0 0.00 0.00 0.00 48 1005.4
20260505020004 16 0 0.0 0.0 0.00 0.00 0.00 47 1005.4
20260505015004 16 0 0.0 0.0 0.00 0.00 0.00 47 1005.4
20260505014004 16 0 0.0 0.0 0.00 0.00 0.00 47 1005.4
20260505013504 16 0 0.0 0.0 0.00 0.00 0.00 47 1005.4
20260505013004 16 0 0.0 0.0 0.00 0.00 0.00 47 1005.4
20260505012504 16 0 0.0 0.0 0.00 0.00 0.00 47 1005.0
20260505012004 16 0 0.0 0.0 0.00 0.00 0.00 47 1005.0
20260505011503 16 0 0.0 0.0 0.00 0.00 0.00 47 1005.0
20260505011004 16 0 0.0 0.0 0.00 0.00 0.00 47 1005.0
20260505010504 17 0 0.0 0.0 0.00 0.00 0.00 46 1005.0
20260505010004 17 0 0.0 0.0 0.00 0.00 0.00 46 1005.0
20260505005504 17 0 0.0 0.0 0.00 0.00 0.00 46 1005.0
20260505005004 17 0 0.0 0.0 0.00 0.00 0.00 46 1004.7
20260505004504 17 0 0.0 0.0 0.00 0.00 0.00 46 1005.0
20260505003504 17 0 0.0 0.0 0.00 0.00 0.00 45 1004.7
20260505003004 17 0 0.0 0.0 0.00 0.00 0.00 45 1004.7